Home > Weather > Yaren > Past weeks

Flag for Nauru Past Weather in Yaren, Nauru — Yesterday and Last 2 Weeks

Now
88 °F

Scattered clouds.


Feels Like: 100 °F
Forecast: 83 / 87 °F
Wind: 12 mph from East

Location: Betio Village

Current Time: May 25, 2016 at 11:29:54 AM

Latest Report: May 25, 2016 at 11:00 AM


Visibility: N/A

Pressure: 29.89 "Hg

Humidity: 70%

Dew Point: 77 °F

Location of YarenLocation

Past Weather in Yaren — Graph

°F

Yaren Temperature Yesterday

Maximum temperature yesterday: 90 °F (at 1:00 PM)
Minimum temperature yesterday: 82 °F (at 12:00 AM)
Average temperature yesterday: 85 °F

High & Low Weather Summary for the Past Weeks

 TemperatureHumidityPressure
High90 °F (May 11, 3:00 PM)100% (May 12, 6:00 AM)29.89 "Hg (May 12, 6:00 AM)
Low79 °F (May 10, 2:00 PM)63% (May 16, 2:00 PM)29.68 "Hg (May 11, 4:00 PM)
Average84 °F81%29.78 "Hg
* Reported May 10 10:00 AM — May 25 10:00 AM, Yaren, Weather by CustomWeather, © 2016

Note: Actual official high and low records may vary slightly from our data, if they occured in-between our weather recording intervals... More about our weather records

Advertising

Yaren Weather History for the Previous 24 Hours

Scroll right to see more
 ConditionsComfort  
Time TempWeatherWind HumidityBarometerVisibility
10:00 AM
Wed, May 25
88 °FScattered clouds.13 mph70%29.89 "HgN/A
9:00 AM88 °FScattered clouds.13 mph70%29.86 "HgN/A
8:00 AM84 °FScattered clouds.12 mph79%29.86 "HgN/A
7:00 AM84 °FBroken clouds.9 mph74%29.83 "HgN/A
6:00 AM82 °FPassing clouds.14 mph84%29.83 "HgN/A
5:00 AM82 °FPassing clouds.9 mph84%29.80 "HgN/A
4:00 AM82 °FPassing clouds.12 mph84%29.80 "HgN/A
3:00 AM82 °FPassing clouds.12 mph84%29.80 "HgN/A
2:00 AM84 °FPassing clouds.8 mph84%29.83 "HgN/A
1:00 AM84 °FPassing clouds.8 mph84%29.86 "HgN/A
12:00 AM84 °FPassing clouds.9 mph84%29.86 "HgN/A
11:00 PM
Tue, May 24
84 °FPassing clouds.8 mph84%29.86 "HgN/A
10:00 PM84 °FPassing clouds.9 mph84%29.86 "HgN/A
9:00 PM84 °FPassing clouds.8 mph84%29.86 "HgN/A
8:00 PM82 °FPassing clouds.10 mph84%29.83 "HgN/A
7:00 PM82 °FPassing clouds.8 mph89%29.83 "HgN/A
6:00 PM82 °FScattered clouds.6 mph89%29.80 "HgN/A
5:00 PM86 °FScattered showers. Scattered clouds.8 mph79%29.80 "HgN/A
4:00 PM86 °FScattered clouds.8 mph79%29.77 "HgN/A
3:00 PM88 °FScattered clouds.9 mph70%29.80 "HgN/A
2:00 PM90 °FScattered clouds.10 mph71%29.80 "HgN/A
1:00 PM90 °FPassing clouds.10 mph71%29.83 "HgN/A
11:00 AM88 °FPassing clouds.10 mph70%29.86 "HgN/A
Weather by CustomWeather, © 2016

See weather overviewHow to use our weather pages